Weather History for Ionia, MI

Change the Weather History Date:

Saturday, December 22, 2012

  Actual Average (KGRR) Record (KGRR)
Temperature  
Mean Temperature 34 °F 27 °F  
Max Temperature 39 °F 33 °F 57 °F (1941)
Min Temperature 30 °F 22 °F -11 °F (1989)
Degree Days  
Heating Degree Days 30 38  
Month to date heating degree days 762  
Since 1 July heating degree days 2100  
Cooling Degree Days 0 0  
Month to date cooling degree days 0  
Year to date cooling degree days 699  
Moisture  
Dew Point 22 °F    
Average Humidity 63    
Maximum Humidity 75    
Minimum Humidity 46    
Precipitation  
Precipitation 0.00 in 0.08 in 1.07 in (1920)
Month to date precipitation 1.82  
Year to date precipitation 37.59  
Snow  
Snow 0.00 in 0.80 in 8.50 in (1951)
Month to date snowfall 14.8  
Since 1 July snowfall 22.1  
Snow Depth -    
Sea Level Pressure  
Sea Level Pressure 30.02 in    
Wind  
Wind Speed 13 mph (West)    
Max Wind Speed 18 mph    
Max Gust Speed 30 mph    
Visibility 10 miles    
Events      
T = Trace of Precipitation, MM = Missing Value Source: NWS Daily Summary

Daily Weather History Graph

Daily Weather History Graph

Search for Another Location

Airport:

Trip Planner

Search our weather history database for the weather conditions in past years. The results will help you decide how hot, cold, wet, or windy it might be!

Date:

Astronomy

Dec. 22, 2012 Rise Set
Actual Time 8:08 AM EST 5:09 PM EST
Civil Twilight 7:36 AM EST 5:41 PM EST
Nautical Twilight 7:00 AM EST 6:17 PM EST
Astronomical Twilight 6:26 AM EST 6:52 PM EST
Moon 1:30 PM EST (12/22) 2:48 AM EST (12/22)
Length of Visible Light 10h 05m
Length of Day
9h 00m
Waxing Gibbous, 73% of the Moon is Illuminated
Dec 22
Waxing Gibbous
Dec 28
Full
Jan 4
Last Quarter
Jan 11
New
Jan 18
First Quarter

Hourly Weather History & Observations

Time (EST) Temp. Windchill Dew Point Humidity Pressure Visibility Wind Dir Wind Speed Gust Speed Precip Events Conditions
12:14 AM 34.7 °F 25.5 °F 23.5 °F 64% 29.96 in 10.0 mi NW 13.8 mph 21.9 mph N/A   Overcast
12:34 AM 34.2 °F 24.0 °F 21.9 °F 61% 29.97 in 10.0 mi NNW 16.1 mph 29.9 mph N/A   Overcast
12:54 AM 34.2 °F 25.2 °F 23.0 °F 64% 29.97 in 10.0 mi NW 12.7 mph 19.6 mph N/A   Overcast
1:14 AM 33.8 °F 23.2 °F 23.7 °F 67% 29.98 in 10.0 mi NW 17.3 mph 26.5 mph N/A   Overcast
1:34 AM 33.1 °F 23.0 °F 22.3 °F 65% 29.98 in 10.0 mi NW 15.0 mph 29.9 mph N/A   Overcast
1:54 AM 32.9 °F 22.8 °F 22.8 °F 66% 29.99 in 10.0 mi NW 15.0 mph 20.7 mph N/A   Overcast
2:14 AM 32.5 °F 21.2 °F 21.2 °F 63% 30.00 in 10.0 mi NW 18.4 mph 24.2 mph N/A   Overcast
2:34 AM 32.4 °F 22.1 °F 21.4 °F 64% 30.00 in 10.0 mi NW 15.0 mph 21.9 mph N/A   Overcast
2:54 AM 32.2 °F 22.7 °F 20.3 °F 62% 30.01 in 10.0 mi NNW 12.7 mph 24.2 mph N/A   Overcast
3:14 AM 32.0 °F 21.6 °F 20.8 °F 63% 30.02 in 10.0 mi NW 15.0 mph 20.7 mph N/A   Overcast
3:34 AM 32.0 °F 20.5 °F 21.9 °F 66% 30.02 in 10.0 mi NW 18.4 mph 24.2 mph N/A   Overcast
3:54 AM 32.0 °F 21.2 °F 21.6 °F 65% 30.03 in 10.0 mi NW 16.1 mph 19.6 mph N/A   Overcast
4:14 AM 31.8 °F 24.6 °F 20.7 °F 63% 30.03 in 10.0 mi NW 8.1 mph 19.6 mph N/A   Overcast
4:34 AM 31.8 °F 22.3 °F 20.3 °F 62% 30.03 in 10.0 mi NW 12.7 mph 19.6 mph N/A   Overcast
4:54 AM 31.8 °F 22.3 °F 21.2 °F 65% 30.03 in 10.0 mi WNW 12.7 mph 17.3 mph N/A   Overcast
5:14 AM 31.8 °F 23.3 °F 21.2 °F 65% 30.03 in 10.0 mi WNW 10.4 mph - N/A   Overcast
5:34 AM 31.8 °F 21.8 °F 21.2 °F 65% 30.04 in 10.0 mi NW 13.8 mph 17.3 mph N/A   Overcast
5:54 AM 31.6 °F 23.1 °F 21.2 °F 65% 30.04 in 10.0 mi WNW 10.4 mph - N/A   Overcast
6:14 AM 31.5 °F 21.8 °F 20.8 °F 65% 30.04 in 10.0 mi WNW 12.7 mph 19.6 mph N/A   Overcast
6:34 AM 31.5 °F 21.4 °F 20.3 °F 63% 30.04 in 10.0 mi NW 13.8 mph 18.4 mph N/A   Overcast
6:54 AM 31.1 °F 21.4 °F 20.3 °F 64% 30.04 in 10.0 mi WNW 12.7 mph 17.3 mph N/A   Overcast
7:14 AM 31.1 °F 20.5 °F 20.3 °F 64% 30.04 in 10.0 mi WNW 15.0 mph 19.6 mph N/A   Overcast
7:34 AM 31.1 °F 21.9 °F 20.3 °F 64% 30.05 in 10.0 mi NW 11.5 mph 17.3 mph N/A   Overcast
7:54 AM 31.1 °F 21.9 °F 20.1 °F 64% 30.06 in 10.0 mi WNW 11.5 mph 16.1 mph N/A   Overcast
8:14 AM 30.9 °F 21.7 °F 20.1 °F 64% 30.06 in 10.0 mi WNW 11.5 mph - N/A   Overcast
8:34 AM 30.9 °F 21.2 °F 20.1 °F 64% 30.07 in 10.0 mi WNW 12.7 mph - N/A   Overcast
8:54 AM 31.1 °F 20.9 °F 20.1 °F 64% 30.07 in 10.0 mi WNW 13.8 mph - N/A   Overcast
9:14 AM 31.1 °F 21.4 °F 20.3 °F 64% 30.07 in 10.0 mi WNW 12.7 mph 18.4 mph N/A   Overcast
9:34 AM 31.1 °F 20.9 °F 20.1 °F 64% 30.08 in 10.0 mi WNW 13.8 mph 17.3 mph N/A   Overcast
9:54 AM 31.6 °F 22.6 °F 20.1 °F 62% 30.08 in 10.0 mi WNW 11.5 mph - N/A   Overcast
10:14 AM 32.0 °F 22.5 °F 20.3 °F 62% 30.08 in 10.0 mi WNW 12.7 mph - N/A   Overcast
10:34 AM 32.5 °F 23.2 °F 21.2 °F 63% 30.08 in 10.0 mi WNW 12.7 mph - N/A   Overcast
10:54 AM 33.1 °F 23.0 °F 20.7 °F 60% 30.08 in 10.0 mi WNW 15.0 mph 18.4 mph N/A   Overcast
11:14 AM 32.5 °F 22.7 °F 20.1 °F 60% 30.08 in 10.0 mi WNW 13.8 mph - N/A   Overcast
11:34 AM 34.2 °F 26.2 °F 21.2 °F 59% 30.08 in 10.0 mi WNW 10.4 mph - N/A   Mostly Cloudy
11:54 AM 34.3 °F 25.9 °F 20.7 °F 57% 30.07 in 10.0 mi West 11.5 mph 20.7 mph N/A   Mostly Cloudy
12:14 PM 35.2 °F 26.2 °F 20.3 °F 55% 30.05 in 10.0 mi West 13.8 mph 18.4 mph N/A   Scattered Clouds
12:34 PM 36.0 °F 27.1 °F 20.7 °F 54% 30.05 in 10.0 mi West 13.8 mph - N/A   Clear
12:54 PM 36.5 °F 27.0 °F 21.6 °F 55% 30.05 in 10.0 mi WNW 16.1 mph - N/A   Clear
1:14 PM 37.0 °F 28.5 °F 21.4 °F 53% 30.04 in 10.0 mi West 13.8 mph - N/A   Clear
1:34 PM 37.2 °F 28.7 °F 20.3 °F 50% 30.04 in 10.0 mi West 13.8 mph 18.4 mph N/A   Clear
1:54 PM 37.4 °F 30.3 °F 20.3 °F 50% 30.03 in 10.0 mi West 10.4 mph - N/A   Clear
2:14 PM 39.0 °F 31.4 °F 21.6 °F 50% 30.02 in 10.0 mi West 12.7 mph - N/A   Clear
2:34 PM 39.0 °F 32.3 °F 19.8 °F 46% 30.02 in 10.0 mi West 10.4 mph - N/A   Clear
2:54 PM 39.2 °F 32.5 °F 20.5 °F 47% 30.02 in 10.0 mi West 10.4 mph - N/A   Clear
3:14 PM 39.6 °F 33.0 °F 21.9 °F 49% 30.01 in 10.0 mi West 10.4 mph - N/A   Clear
3:34 PM 39.2 °F 32.5 °F 20.8 °F 48% 30.01 in 10.0 mi West 10.4 mph - N/A   Clear
3:54 PM 38.5 °F 31.1 °F 23.0 °F 54% 30.01 in 10.0 mi WSW 11.5 mph - N/A   Clear
4:14 PM 37.4 °F 28.9 °F 23.0 °F 56% 30.01 in 10.0 mi WSW 13.8 mph - N/A   Clear
4:34 PM 36.7 °F 28.4 °F 23.0 °F 58% 30.01 in 7.0 mi West 12.7 mph - N/A   Clear
4:54 PM 35.8 °F 27.8 °F 23.2 °F 60% 30.00 in 10.0 mi West 11.5 mph - N/A   Clear
5:14 PM 35.1 °F 27.9 °F 23.0 °F 61% 30.00 in 10.0 mi West 9.2 mph - N/A   Clear
5:34 PM 34.7 °F 25.1 °F 23.7 °F 64% 30.01 in 10.0 mi WSW 15.0 mph - N/A   Clear
5:54 PM 33.8 °F 24.8 °F 23.7 °F 67% 30.00 in 10.0 mi WSW 12.7 mph - N/A   Clear
6:14 PM 33.4 °F 25.4 °F 23.7 °F 68% 30.00 in 10.0 mi WSW 10.4 mph - N/A   Clear
6:34 PM 32.9 °F 25.9 °F 23.9 °F 69% 30.00 in 10.0 mi West 8.1 mph - N/A   Clear
6:54 PM 32.2 °F 25.0 °F 23.9 °F 72% 30.00 in 10.0 mi WSW 8.1 mph - N/A   Clear
7:14 PM 32.0 °F 24.2 °F 24.3 °F 73% 30.01 in 10.0 mi WSW 9.2 mph - N/A   Clear
7:34 PM 32.0 °F 25.6 °F 24.4 °F 74% 30.01 in 10.0 mi WSW 6.9 mph - N/A   Clear
7:54 PM 32.0 °F 23.6 °F 24.6 °F 74% 30.00 in 10.0 mi WSW 10.4 mph - N/A   Clear
8:14 PM 32.2 °F 23.8 °F 24.8 °F 74% 29.99 in 10.0 mi SW 10.4 mph 16.1 mph N/A   Clear
8:34 PM 32.0 °F 23.0 °F 24.8 °F 75% 29.99 in 10.0 mi WSW 11.5 mph - N/A   Clear
8:54 PM 32.0 °F 24.2 °F 24.8 °F 75% 29.98 in 10.0 mi SW 9.2 mph - N/A   Clear
9:14 PM 32.0 °F 23.6 °F 24.4 °F 74% 29.97 in 10.0 mi SW 10.4 mph - N/A   Clear
9:34 PM 31.8 °F 24.6 °F 23.9 °F 73% 29.97 in 10.0 mi SW 8.1 mph - N/A   Clear
9:54 PM 31.6 °F 23.1 °F 23.7 °F 73% 29.96 in 10.0 mi SW 10.4 mph - N/A   Clear
10:14 PM 31.5 °F 22.9 °F 23.5 °F 73% 29.96 in 10.0 mi SW 10.4 mph - N/A   Clear
10:34 PM 31.1 °F 22.4 °F 23.4 °F 73% 29.96 in 10.0 mi SW 10.4 mph 17.3 mph N/A   Clear
10:54 PM 30.9 °F 22.2 °F 23.2 °F 73% 29.96 in 10.0 mi SW 10.4 mph - N/A   Clear
11:14 PM 30.6 °F 21.8 °F 23.0 °F 74% 29.95 in 10.0 mi SSW 10.4 mph - N/A   Clear
11:34 PM 30.2 °F 21.9 °F 22.1 °F 72% 29.96 in 10.0 mi SW 9.2 mph - N/A   Clear
11:54 PM 30.0 °F 21.7 °F 21.9 °F 72% 29.95 in 10.0 mi SW 9.2 mph - N/A   Clear